Duluth, MN

7:06 AM CDT on July 22, 2017 (GMT -0500)
Duluth International

Weather History for KDLH - September, 2013

Change the Weather History Date:

Monday, September 9, 2013

  Actual Average Record
Temperature  
Mean Temperature 63 °F 58 °F  
Max Temperature 67 °F 68 °F 90 °F (1961)
Min Temperature 59 °F 49 °F 33 °F (1975)
Degree Days  
Heating Degree Days 2 7  
Month to date heating degree days 24 55  
Since 1 July heating degree days 98 204  
Cooling Degree Days 0 1  
Month to date cooling degree days 16 9  
Year to date cooling degree days 367 199  
Growing Degree Days 12 (Base 50)    
Moisture  
Dew Point 59 °F    
Average Humidity 89    
Maximum Humidity 93    
Minimum Humidity 84    
Precipitation  
Precipitation 0.32 in 0.15 in 1.91 in (1929)
Month to date precipitation 0.32 1.24  
Year to date precipitation 21.91 21.94  
Snow  
Snow 0.00 in 0.00 in T in (1992)
Month to date snowfall 0.0 0.0  
Since 1 July snowfall 0.0 0.0  
Since 1 September snowfall 0.0 0.0  
Snow Depth 0.00 in    
Sea Level Pressure  
Sea Level Pressure 29.79 in    
Wind  
Wind Speed 6 mph (ESE)    
Max Wind Speed 22 mph    
Max Gust Speed 26 mph    
Visibility 2 miles    
Events Fog , Rain    
T = Trace of Precipitation, MM = Missing Value Source: NWS Daily Summary

Daily Weather History Graph

Daily Weather History Graph

Search for Another Location

Airport or City:

Trip Planner

Search our weather history database for the weather conditions in past years. The results will help you decide how hot, cold, wet, or windy it might be!

Date:

Astronomy

Sep. 09, 2013 Rise Set
Actual Time 6:39 AM CDT 7:31 PM CDT
Civil Twilight 6:08 AM CDT 8:02 PM CDT
Nautical Twilight 5:31 AM CDT 8:39 PM CDT
Astronomical Twilight 4:52 AM CDT 9:17 PM CDT
Moon 11:20 AM CDT (9/9) 9:28 PM CDT (9/9)
Length of Visible Light 13h 54m
Length of Day
12h 52m
Waxing Crescent, 19% of the Moon is Illuminated
Sep 9
Waxing Crescent
Sep 12
First Quarter
Sep 19
Full
Sep 26
Last Quarter
Oct 4
New

Hourly Weather History & Observations

Time (CDT) Temp. Dew Point Humidity Pressure Visibility Wind Dir Wind Speed Gust Speed Precip Events Conditions
12:03 AM 60.8 °F 55.4 °F 82% 29.93 in 10.0 mi ESE 6.9 mph - N/A   Overcast
12:10 AM 60.8 °F 55.4 °F 82% 29.93 in 10.0 mi East 6.9 mph - N/A   Overcast
12:55 AM 60.1 °F 55.9 °F 86% 29.92 in 10.0 mi East 5.8 mph - N/A   Overcast
1:06 AM 60.8 °F 55.4 °F 82% 29.91 in 10.0 mi East 5.8 mph - N/A   Overcast
1:48 AM 60.8 °F 55.4 °F 82% 29.91 in 10.0 mi ESE 4.6 mph - N/A   Overcast
1:55 AM 60.1 °F 55.9 °F 86% 29.91 in 10.0 mi ESE 6.9 mph - N/A   Overcast
2:45 AM 60.8 °F 57.2 °F 88% 29.89 in 10.0 mi SE 6.9 mph - N/A   Overcast
2:55 AM 60.1 °F 57.0 °F 90% 29.90 in 10.0 mi SE 8.1 mph - N/A   Overcast
3:08 AM 60.8 °F 57.2 °F 88% 29.89 in 10.0 mi ESE 5.8 mph - N/A   Overcast
3:55 AM 60.1 °F 57.0 °F 90% 29.88 in 4.0 mi ESE 6.9 mph - 0.00 in   Light Drizzle
4:41 AM 59.0 °F 57.2 °F 94% 29.86 in 2.5 mi SE 6.9 mph - 0.00 in   Light Drizzle
4:55 AM 59.0 °F 57.0 °F 93% 29.86 in 1.8 mi ESE 6.9 mph - 0.00 in   Light Drizzle
5:13 AM 59.0 °F 57.2 °F 94% 29.86 in 0.8 mi ESE 6.9 mph - 0.00 in   Light Drizzle
5:33 AM 59.0 °F 57.2 °F 94% 29.84 in 0.5 mi ESE 5.8 mph - 0.00 in Fog Fog
5:52 AM 59.0 °F 57.2 °F 94% 29.85 in 0.5 mi ESE 5.8 mph - 0.00 in Fog Fog
5:55 AM 59.0 °F 57.0 °F 93% 29.85 in 0.5 mi ESE 5.8 mph - 0.00 in Fog Fog
6:06 AM 59.0 °F 57.2 °F 94% 29.85 in 0.5 mi ESE 5.8 mph - N/A Fog Fog
6:43 AM 60.8 °F 57.2 °F 88% 29.85 in 0.2 mi ESE 4.6 mph - 0.00 in Fog Light Drizzle
6:55 AM 60.1 °F 57.0 °F 90% 29.87 in 0.2 mi East 3.5 mph - 0.00 in Fog Light Drizzle
7:28 AM 60.8 °F 57.2 °F 88% 29.87 in 0.5 mi SE 5.8 mph - 0.01 in Fog Light Drizzle
7:55 AM 60.1 °F 57.9 °F 93% 29.87 in 0.8 mi ESE 5.8 mph - 0.04 in Rain Rain
7:58 AM 60.8 °F 57.2 °F 88% 29.86 in 2.0 mi ESE 6.9 mph - 0.01 in Rain Rain
8:06 AM 60.8 °F 57.2 °F 88% 29.82 in 0.8 mi East 10.4 mph - 0.06 in Rain Rain
8:24 AM 60.8 °F 57.2 °F 88% 29.80 in 1.5 mi ESE 12.7 mph - 0.09 in Rain Light Rain
8:33 AM 60.8 °F 57.2 °F 88% 29.82 in 0.8 mi ESE 10.4 mph - 0.10 in Rain Light Rain
8:52 AM 60.8 °F 57.2 °F 88% 29.87 in 0.2 mi SW 3.5 mph - 0.11 in Fog , Rain Light Rain
8:55 AM 61.0 °F 57.9 °F 90% 29.90 in 3.0 mi West 6.9 mph - 0.11 in Rain Light Rain
9:03 AM 60.8 °F 57.2 °F 88% 29.89 in 2.0 mi Calm Calm - 0.01 in Rain Rain
9:32 AM 60.8 °F 57.2 °F 88% 29.80 in 0.8 mi ESE 12.7 mph - 0.09 in Rain Rain
9:40 AM 60.8 °F 57.2 °F 88% 29.75 in 0.5 mi East 21.9 mph 25.3 mph 0.10 in Fog , Rain Rain
9:52 AM 60.8 °F 57.2 °F 88% 29.71 in 0.5 mi East 19.6 mph - 0.12 in Fog , Rain Light Rain
9:55 AM 60.1 °F 57.9 °F 93% 29.72 in 0.5 mi East 19.6 mph 26.5 mph 0.12 in Fog , Rain Light Rain
10:04 AM 60.8 °F 57.2 °F 88% 29.72 in 0.5 mi East 10.4 mph 26.5 mph 0.01 in Fog , Rain Light Rain
10:28 AM 60.8 °F 59.0 °F 94% 29.76 in 0.1 mi SE 9.2 mph - 0.01 in Fog Fog
10:36 AM 60.8 °F 59.0 °F 94% 29.76 in 0.1 mi SE 12.7 mph - 0.01 in Fog Fog
10:55 AM 61.0 °F 59.0 °F 93% 29.77 in 0.1 mi ESE 9.2 mph - 0.01 in Fog Fog
11:55 AM 63.0 °F 61.0 °F 93% 29.74 in 0.1 mi SE 8.1 mph - N/A Fog Fog
12:55 PM 64.0 °F 61.0 °F 90% 29.75 in 0.1 mi Calm Calm - N/A Fog Fog
1:07 PM 64.4 °F 62.6 °F 94% 29.74 in 0.1 mi ESE 4.6 mph - 0.00 in Fog , Rain Light Rain
1:55 PM 66.0 °F 64.0 °F 93% 29.72 in 0.1 mi East 6.9 mph - 0.01 in Fog , Rain Light Rain
2:55 PM 66.0 °F 63.0 °F 90% 29.70 in 0.1 mi ESE 6.9 mph - 0.00 in Fog Fog
3:13 PM 66.2 °F 62.6 °F 88% 29.70 in 0.1 mi ESE 6.9 mph - N/A Fog Fog
3:55 PM 64.9 °F 63.0 °F 93% 29.70 in 0.1 mi SE 4.6 mph - N/A Fog Fog
4:12 PM 64.4 °F 62.6 °F 94% 29.69 in 0.1 mi ESE 5.8 mph - N/A Fog Fog
4:22 PM 64.4 °F 62.6 °F 94% 29.69 in 0.1 mi ESE 5.8 mph - N/A Fog Fog
4:55 PM 64.9 °F 62.1 °F 90% 29.70 in 0.1 mi ESE 4.6 mph - 0.01 in Fog Fog
5:55 PM 64.9 °F 62.1 °F 90% 29.71 in 0.1 mi ESE 4.6 mph - 0.01 in Fog Light Drizzle
6:07 PM 64.4 °F 62.6 °F 94% 29.70 in 1.0 mi ESE 4.6 mph - 0.00 in   Light Drizzle
6:55 PM 64.0 °F 62.1 °F 93% 29.71 in 1.0 mi ESE 5.8 mph - 0.00 in   Overcast
7:02 PM 64.4 °F 62.6 °F 94% 29.71 in 0.5 mi ESE 6.9 mph - N/A Fog Fog
7:55 PM 64.0 °F 61.0 °F 90% 29.72 in 0.5 mi ESE 5.8 mph - N/A Fog Fog
8:02 PM 64.4 °F 62.6 °F 94% 29.71 in 0.2 mi East 3.5 mph - N/A Fog Fog
8:30 PM 64.4 °F 62.6 °F 94% 29.72 in 0.2 mi Calm Calm - N/A Fog Fog
8:37 PM 64.4 °F 60.8 °F 88% 29.72 in 0.5 mi NNE 5.8 mph - N/A Fog Fog
8:55 PM 64.0 °F 61.0 °F 90% 29.73 in 0.5 mi SE 3.5 mph - N/A Fog Fog
9:16 PM 64.4 °F 62.6 °F 94% 29.72 in 0.2 mi South 4.6 mph - N/A Fog Fog
9:36 PM 64.4 °F 62.6 °F 94% 29.72 in 0.2 mi SSE 3.5 mph - N/A Fog Fog
9:43 PM 64.4 °F 62.6 °F 94% 29.72 in 0.2 mi SSE 3.5 mph - N/A Fog Fog
9:55 PM 64.0 °F 61.0 °F 90% 29.73 in 0.1 mi SSE 3.5 mph - N/A Fog Fog
10:20 PM 64.4 °F 60.8 °F 88% 29.72 in 0.1 mi SE 4.6 mph - N/A Fog Fog
10:30 PM 64.4 °F 62.6 °F 94% 29.72 in 0.1 mi SSE 3.5 mph - N/A Fog Fog
10:55 PM 64.0 °F 61.0 °F 90% 29.73 in 0.1 mi South 3.5 mph - N/A Fog Fog
11:39 PM 64.4 °F 60.8 °F 88% 29.73 in 0.2 mi Calm Calm - N/A Fog Fog
11:55 PM 64.0 °F 61.0 °F 90% 29.73 in 0.2 mi Calm Calm - N/A Fog Fog